リニア彗星

345P/LINEAR (2008)

English version
Home page
Updated on December 25, 2016

---------------------------------------------------------------------

・ プロフィール

符号 345P/2008 SH164
発見日 2008年9月28日
発見光度 19.8等
発見者 Lincoln Laboratory Near-Earth Asteroid Research project

・ 軌道要素

Epoch 2008 May 14.0 TT = JDT 2454600.5
T 2008 June 2.60994 TT                                  MPCW
q   3.1369803            (2000.0)            P               Q
n   0.12182483     Peri.  196.41559     +0.98750911     +0.15623247
a   4.0300660      Node   154.56908     -0.13868650     +0.92339680
e   0.2216057      Incl.    2.72621     -0.07477843     +0.35061342
P   8.09
From 53 observations 2008 Sept. 2-2016 Aug. 30, mean residual 0".6.

・ 光度変化

        m1 = 12.0 + 5 logΔ + 10.0 log r

---------------------------------------------------------------------

軌道要素はM.P.E.C. 2016-Q54に掲載されたものです。
光度グラフはComet for Windowsで作成したものです。

---------------------------------------------------------------------

Copyright(C) Seiichi Yoshida (comet@aerith.net). All rights reserved.